1514890800.04,7307,6.75,72374.3,-3.77,-8.85,-9.37,0,*68
1514890801.29,7308,6.75,72374.5,-3.77,-8.85,-9.45,0,*62
1514890802.53,7309,6.75,72374.5,-3.77,-9.05,-9.57,0,*69
1514890803.78,7310,6.75,72372.5,-3.77,-9.05,-9.49,0,*6E
1514890805.02,7311,6.75,72376.3,-3.77,-9.37,-9.79,0,*6D
1514890806.27,7312,6.75,72368.8,-3.75,-9.15,-9.57,0,*60
1514890807.49,7313,6.75,72370.5,-3.73,-9.19,-9.67,0,*68
1514890808.74,7314,6.75,72378.3,-3.77,-9.05,-9.49,0,*6A
1514890809.98,7315,6.75,72374.5,-3.77,-9.23,-9.57,0,*60
1514890811.17,7316,6.75,72374.5,-3.75,-9.31,-9.89,0,*61
1514890812.37,7317,6.75,72374.0,-3.75,-9.27,-9.71,0,*60
1514890813.56,7318,6.75,72374.3,-3.75,-9.27,-9.71,0,*6F
1514890814.76,7319,6.75,72372.0,-3.75,-9.27,-9.71,0,*6E
1514890815.98,7320,6.75,72374.3,-3.75,-9.05,-9.53,0,*64
1514890817.2,7321,6.75,72372.5,-3.75,-9.05,-9.41,0,*66
1514890818.39,7322,6.75,72372.5,-3.75,-8.93,-9.31,0,*6C
1514890819.65,7323,6.75,72374.0,-3.73,-9.05,-9.53,0,*61
1514890820.9,7324,6.75,72374.0,-3.73,-9.05,-9.53,0,*66
1514890822.15,7325,6.75,72374.8,-3.73,-9.05,-9.53,0,*67
1514890823.41,7326,6.75,72372.3,-3.73,-9.05,-9.45,0,*63
1514890824.66,7327,6.75,72372.0,-3.73,-9.01,-9.41,0,*62
1514890825.91,7328,6.75,72374.3,-3.73,-9.19,-9.53,0,*67
1514890827.14,7329,6.75,72374.8,-3.73,-9.27,-9.75,0,*6F
1514890828.33,7330,6.75,72374.3,-3.75,-9.27,-9.71,0,*65
1514890829.58,7331,6.75,72372.8,-3.73,-9.05,-9.41,0,*61
1514890830.82,7332,6.75,72374.3,-3.71,-8.97,-9.41,0,*6A
1514890832.04,7333,6.75,72374.0,-3.71,-8.97,-9.27,0,*6B
1514890833.25,7334,6.75,72370.5,-3.71,-8.97,-9.27,0,*6C
1514890834.48,7335,6.75,72372.3,-3.71,-8.89,-9.27,0,*62
1514890835.69,7336,6.75,72372.5,-3.71,-8.97,-9.27,0,*6E
1514890836.94,7337,6.75,72372.0,-3.71,-8.89,-9.37,0,*61
1514890838.18,7338,6.75,72372.5,-3.71,-9.23,-9.61,0,*6C
1514890839.43,7339,6.75,72370.0,-3.71,-9.23,-9.61,0,*6D
1514890840.64,7340,6.75,72370.3,-3.71,-8.97,-9.27,0,*6F
1514890841.87,7341,6.75,72374.5,-3.69,-9.01,-9.37,0,*68
1514890843.12,7342,6.75,72374.8,-3.69,-9.11,-9.49,0,*63
1514890844.37,7343,6.75,72372.8,-3.69,-9.11,-9.41,0,*6A
1514890845.58,7344,6.75,72372.5,-3.69,-8.89,-9.27,0,*6D
1514890846.8,7345,6.75,72374.8,-3.69,-8.97,-9.37,0,*62
1514890848.05,7346,6.75,72372.0,-3.69,-9.11,-9.49,0,*67
1514890849.3,7347,6.75,72372.0,-3.69,-9.15,-9.61,0,*68
1514890850.58,7348,6.75,72372.8,-3.67,-9.11,-9.49,0,*67
1514890851.86,7349,6.75,72370.8,-3.67,-9.11,-9.45,0,*6A
1514890853.14,7350,6.75,72372.0,-3.67,-9.11,-9.49,0,*6E
1514890854.39,7351,6.75,72368.8,-3.67,-9.19,-9.61,0,*6D
1514890855.61,7352,6.75,72374.3,-3.65,-9.19,-9.57,0,*69
1514890856.88,7353,6.75,72374.3,-3.67,-9.11,-9.57,0,*62
1514890858.13,7354,6.75,72372.8,-3.65,-9.11,-9.57,0,*67
1514890859.35,7355,6.75,72372.8,-3.67,-9.05,-9.31,0,*61
1514890860.6,7356,6.75,72370.5,-3.67,-8.97,-9.37,0,*6E
1514890861.84,7357,6.75,72376.3,-3.67,-8.81,-9.23,0,*6D
1514890863.06,7358,6.75,72374.5,-3.65,-8.97,-9.37,0,*62
1514890864.31,7359,6.75,72372.3,-3.67,-9.19,-9.57,0,*60
1514890865.56,7360,6.75,72368.8,-3.67,-8.97,-9.37,0,*6B
1514890866.76,7361,6.75,72372.5,-3.65,-8.93,-9.23,0,*69
1514890867.97,7362,6.75,72372.5,-3.65,-9.19,-9.57,0,*6A
1514890869.23,7363,6.75,72370.8,-3.67,-9.05,-9.45,0,*67
1514890870.46,7364,6.75,72370.8,-3.65,-9.05,-9.37,0,*67
1514890871.68,7365,6.75,72370.3,-3.65,-9.05,-9.37,0,*66
1514890872.91,7366,6.75,72372.8,-3.59,-9.01,-9.27,0,*6F
1514890874.11,7367,6.75,72372.0,-3.61,-8.93,-9.19,0,*62
1514890875.35,7368,6.75,72374.0,-3.59,-8.97,-9.37,0,*6E
1514890876.6,7369,6.75,72374.3,-3.59,-8.97,-9.37,0,*6F
1514890877.79,7370,6.75,72372.3,-3.61,-8.93,-9.31,0,*6E
1514890879.0,7371,6.75,72374.3,-3.61,-8.93,-9.27,0,*68
1514890880.19,7372,6.75,72370.8,-3.57,-8.89,-9.23,0,*61
1514890881.42,7373,6.75,72370.8,-3.59,-8.89,-9.23,0,*6E
1514890882.67,7374,6.75,72372.3,-3.59,-9.01,-9.37,0,*6D
1514890883.91,7375,6.75,72374.0,-3.55,-8.97,-9.45,0,*6B
1514890885.16,7376,6.75,72374.5,-3.57,-9.11,-9.49,0,*69
1514890886.41,7377,6.75,72370.8,-3.57,-9.11,-9.41,0,*60
1514890887.64,7378,6.75,72374.3,-3.57,-9.01,-9.41,0,*6E
1514890888.86,7379,6.75,72372.5,-3.55,-8.93,-9.23,0,*63
1514890890.1,7380,6.75,72368.5,-3.55,-8.97,-9.37,0,*64
1514890891.34,7381,6.75,72374.8,-3.55,-8.97,-9.37,0,*65
1514890892.59,7382,6.75,72372.5,-3.55,-8.97,-9.37,0,*66
1514890893.83,7383,6.75,72370.0,-3.55,-8.97,-9.37,0,*67
1514890895.04,7384,6.75,72374.5,-3.55,-8.97,-9.23,0,*65
1514890896.24,7385,6.75,72372.3,-3.53,-8.93,-9.23,0,*66
1514890897.5,7386,6.75,72374.3,-3.53,-9.11,-9.53,0,*69
1514890898.74,7387,6.75,72374.8,-3.51,-9.05,-9.45,0,*68
1514890899.97,7388,6.75,72376.0,-3.53,-9.05,-9.37,0,*60
1514890901.16,7389,6.75,72372.0,-3.53,-8.97,-9.23,0,*6E
1514890902.36,7390,6.75,72368.8,-3.53,-8.89,-9.27,0,*6D
1514890903.56,7391,6.75,72370.5,-3.53,-8.89,-9.19,0,*61
1514890904.8,7392,6.75,72372.8,-3.51,-8.81,-9.19,0,*68
1514890906.05,7393,6.75,72370.5,-3.51,-9.01,-9.45,0,*69
1514890907.33,7394,6.75,72374.3,-3.51,-9.15,-9.49,0,*67
1514890908.6,7395,6.75,72374.8,-3.51,-9.15,-9.57,0,*69
1514890909.88,7396,6.75,72370.5,-3.51,-9.15,-9.49,0,*65
1514890911.13,7397,6.75,72374.5,-3.49,-9.15,-9.49,0,*6D
1514890912.35,7398,6.75,72372.3,-3.49,-9.01,-9.41,0,*6F
1514890913.56,7399,6.75,72372.8,-3.47,-8.97,-9.27,0,*6E
1514890914.79,7400,6.75,72372.8,-3.49,-9.01,-9.49,0,*61
1514890916.01,7401,6.75,72374.5,-3.49,-9.01,-9.49,0,*60
1514890917.28,7402,6.75,72372.3,-3.47,-9.11,-9.53,0,*67
1514890918.53,7403,6.75,72372.8,-3.47,-9.01,-9.45,0,*60
1514890919.78,7404,6.75,72368.8,-3.47,-9.01,-9.45,0,*67
1514890921.02,7405,6.75,72372.8,-3.47,-9.01,-9.53,0,*61
1514890922.24,7406,6.75,72372.0,-3.45,-8.97,-9.41,0,*6D
1514890923.45,7407,6.75,72368.8,-3.45,-8.97,-9.41,0,*6C
1514890924.67,7408,6.75,72374.8,-3.45,-9.01,-9.45,0,*69
1514890925.86,7409,6.75,72370.0,-3.45,-9.23,-9.71,0,*6F
1514890927.09,7410,6.75,72372.5,-3.45,-9.15,-9.67,0,*65
1514890928.33,7411,6.75,72374.5,-3.45,-9.15,-9.57,0,*67
1514890929.55,7412,6.75,72370.8,-3.45,-9.11,-9.67,0,*63
1514890930.79,7413,6.75,72368.0,-3.43,-9.05,-9.61,0,*67
1514890932.04,7414,6.75,72374.0,-3.43,-9.05,-9.53,0,*61
1514890933.26,7415,6.75,72370.8,-3.43,-9.05,-9.67,0,*67
1514890934.48,7416,6.75,72368.5,-3.43,-9.19,-9.67,0,*69
1514890935.7,7417,6.75,72370.5,-3.43,-9.19,-9.79,0,*67
1514890936.92,7418,6.75,72374.8,-3.39,-9.15,-9.75,0,*65
1514890938.15,7419,6.75,72374.3,-3.39,-9.15,-9.71,0,*60
1514890939.37,7420,6.75,72370.8,-3.37,-9.27,-9.75,0,*61
1514890940.57,7421,6.75,72374.0,-3.39,-9.19,-9.71,0,*67
1514890941.76,7422,6.75,72368.8,-3.39,-9.19,-9.75,0,*60
1514890942.99,7423,6.75,72372.0,-3.39,-9.45,-10.01,0,*53
1514890944.19,7424,6.75,72370.3,-3.39,-9.71,-10.31,0,*50
1514890945.41,7425,6.75,72370.5,-3.39,-9.61,-10.27,0,*57
1514890946.6,7426,6.75,72368.8,-3.39,-9.27,-9.89,0,*6A
1514890947.85,7427,6.75,72372.3,-3.37,-9.31,-9.83,0,*68
1514890949.1,7428,6.75,72374.3,-3.37,-9.31,-9.83,0,*67
1514890950.35,7429,6.75,72374.8,-3.37,-9.57,-10.19,0,*5D
1514890951.6,7430,6.75,72372.3,-3.37,-9.61,-10.27,0,*5D
1514890952.82,7431,6.75,72378.0,-3.39,-9.49,-10.09,0,*54
1514890954.06,7432,6.75,72374.0,-3.37,-9.27,-9.83,0,*6B
1514890955.31,7433,6.75,72374.0,-3.37,-9.27,-9.83,0,*6A
1514890956.54,7434,6.75,72370.3,-3.37,-9.05,-9.75,0,*64
1514890957.8,7435,6.75,72372.8,-3.37,-9.37,-10.01,0,*5F
1514890958.99,7436,6.75,72372.3,-3.35,-9.23,-9.79,0,*6C
1514890960.22,7437,6.75,72374.3,-3.35,-9.11,-9.79,0,*6C
1514890961.45,7438,6.75,72368.3,-3.35,-9.11,-9.71,0,*6B
1514890962.71,7439,6.75,72374.3,-3.33,-9.15,-9.79,0,*60
1514890963.99,7440,6.75,72374.8,-3.33,-9.15,-9.83,0,*6B
1514890965.21,7441,6.75,72372.3,-3.33,-9.31,-9.97,0,*69
1514890966.43,7442,6.75,72374.0,-3.33,-9.23,-9.97,0,*69
1514890967.66,7443,6.75,72374.0,-3.33,-9.23,-9.93,0,*6C
1514890968.9,7444,6.75,72374.3,-3.33,-9.23,-9.83,0,*6A
1514890970.13,7445,6.75,72374.8,-3.33,-9.27,-9.93,0,*6E
1514890971.36,7446,6.75,72368.5,-3.29,-9.27,-10.01,0,*55
1514890972.58,7447,6.75,72374.0,-3.27,-9.41,-10.23,0,*5A
1514890973.83,7448,6.75,72372.8,-3.29,-9.49,-10.23,0,*53
1514890975.03,7449,6.75,72374.0,-3.27,-9.27,-10.01,0,*54
1514890976.25,7450,6.75,72372.8,-3.27,-9.37,-10.09,0,*55
1514890977.51,7451,6.75,72368.3,-3.29,-9.37,-10.19,0,*5B
1514890978.74,7452,6.75,72372.8,-3.29,-9.27,-10.19,0,*59
1514890979.97,7453,6.75,72368.5,-3.27,-9.37,-10.23,0,*5E
1514890981.2,7454,6.75,72372.3,-3.27,-9.41,-10.19,0,*51
1514890982.42,7455,6.75,72370.5,-3.25,-9.19,-9.97,0,*61
1514890983.64,7456,6.75,72372.5,-3.25,-9.23,-10.05,0,*58
1514890984.88,7457,6.75,72370.3,-3.25,-9.57,-10.45,0,*5E
1514890986.12,7458,6.75,72368.3,-3.25,-9.57,-10.45,0,*51
1514890987.35,7459,6.75,72370.0,-3.23,-9.41,-10.23,0,*51
1514890988.54,7460,6.75,72374.3,-3.23,-9.31,-10.09,0,*54
1514890989.74,7461,6.75,72370.0,-3.23,-9.27,-10.09,0,*52
1514890990.94,7462,6.75,72368.8,-3.23,-9.31,-10.15,0,*5B
1514890992.2,7463,6.75,72370.3,-3.25,-9.45,-10.31,0,*59
1514890993.4,7464,6.75,72370.3,-3.23,-9.31,-10.35,0,*5F
1514890994.63,7465,6.75,72370.5,-3.23,-9.41,-10.35,0,*59
1514890995.86,7466,6.75,72372.3,-3.23,-9.41,-10.35,0,*5A
1514890997.12,7467,6.75,72370.0,-3.23,-9.41,-10.41,0,*58
1514890998.37,7468,6.75,72374.8,-3.21,-9.45,-10.35,0,*52
1514890999.65,7469,6.75,72372.0,-3.21,-9.45,-10.41,0,*50
1514891000.93,7470,6.75,72372.0,-3.21,-9.53,-10.41,0,*5F
1514891002.18,7471,6.75,72368.0,-3.21,-9.53,-10.53,0,*5D
1514891003.42,7472,6.75,72368.8,-3.21,-9.57,-10.53,0,*5A
1514891004.67,7473,6.75,72368.8,-3.21,-9.79,-10.79,0,*5F
1514891005.93,7474,6.75,72372.3,-3.21,-9.71,-10.63,0,*5B
1514891007.18,7475,6.75,72368.3,-3.21,-9.67,-10.63,0,*5D
1514891008.42,7476,6.75,72370.5,-3.21,-9.57,-10.53,0,*5E
1514891009.71,7477,6.75,72372.0,-3.21,-9.41,-10.41,0,*5B
1514891010.94,7478,6.75,72374.5,-3.19,-9.37,-10.31,0,*59
1514891012.17,7479,6.75,72372.3,-3.19,-9.37,-10.35,0,*5C
1514891013.41,7480,6.75,72368.5,-3.19,-9.41,-10.35,0,*5B
1514891014.64,7481,6.75,72370.8,-3.19,-9.41,-10.45,0,*5D
1514891015.87,7482,6.75,72372.0,-3.19,-9.41,-10.49,0,*52
1514891017.09,7483,6.75,72374.0,-3.19,-9.67,-10.71,0,*5C
1514891018.31,7484,6.75,72374.5,-3.19,-9.53,-10.57,0,*58
1514891019.53,7485,6.75,72372.0,-3.19,-9.49,-10.45,0,*51
1514891020.78,7486,6.75,72368.8,-3.19,-9.61,-10.63,0,*5C
1514891022.05,7487,6.75,72370.5,-3.17,-9.53,-10.63,0,*52
1514891023.32,7488,6.75,72370.3,-3.17,-9.61,-10.71,0,*5F
1514891024.56,7489,6.75,72370.8,-3.17,-9.67,-10.71,0,*58
1514891025.78,7490,6.75,72374.0,-3.13,-9.75,-10.85,0,*5C
1514891027.05,7491,6.75,72370.5,-3.13,-9.57,-10.67,0,*51
1514891028.31,7492,6.75,72368.8,-3.13,-9.57,-10.71,0,*55
1514891029.56,7493,6.75,72372.0,-3.13,-9.49,-10.53,0,*5B
1514891030.81,7494,6.75,72372.5,-3.13,-9.45,-10.45,0,*57
1514891032.08,7495,6.75,72370.8,-3.13,-9.61,-10.79,0,*5F
1514891033.35,7496,6.75,72372.8,-3.13,-9.61,-10.67,0,*53
1514891034.55,7497,6.75,72370.8,-3.11,-9.75,-10.97,0,*5A
1514891035.77,7498,6.75,72370.8,-3.13,-10.05,-11.11,0,*67
1514891036.99,7499,6.75,72368.3,-3.13,-9.75,-10.89,0,*59
1514891038.19,7500,6.75,72372.3,-3.11,-10.05,-11.11,0,*65
1514891039.38,7501,6.75,72368.8,-3.11,-10.05,-11.15,0,*60
1514891040.59,7502,6.75,72368.8,-3.11,-10.15,-11.23,0,*67
1514891041.84,7503,6.75,72372.0,-3.13,-10.19,-11.29,0,*62
1514891043.1,7504,6.75,72368.3,-3.13,-10.19,-11.29,0,*65
1514891044.33,7505,6.75,72370.3,-3.13,-10.19,-11.41,0,*6A
1514891045.55,7506,6.75,72368.8,-3.13,-10.05,-11.15,0,*65
1514891046.78,7507,6.75,72374.8,-3.13,-10.15,-11.11,0,*61
1514891047.99,7508,6.75,72370.3,-3.13,-9.93,-11.11,0,*58
1514891049.24,7509,6.75,72372.8,-3.17,-10.09,-11.29,0,*6D
1514891050.45,7510,6.75,72372.3,-3.13,-10.05,-11.15,0,*62
1514891051.67,7511,6.75,72370.3,-3.13,-10.05,-11.15,0,*63
1514891052.9,7512,6.75,72374.0,-3.13,-10.15,-11.15,0,*61
1514891054.12,7513,6.75,72372.0,-3.13,-9.93,-11.01,0,*53
1514891055.33,7514,6.75,72368.8,-3.13,-9.89,-11.01,0,*5F
1514891056.55,7515,6.75,72368.3,-3.13,-9.89,-10.97,0,*50
1514891057.77,7516,6.75,72368.8,-3.11,-9.83,-10.97,0,*5B
1514891058.97,7517,6.75,72366.8,-3.11,-9.75,-11.01,0,*5D
1514891060.17,7518,6.75,72370.3,-3.11,-9.75,-10.89,0,*53
1514891061.39,7519,6.75,72372.3,-3.09,-9.67,-10.93,0,*53
1514891062.62,7520,6.75,72370.0,-3.09,-9.71,-10.93,0,*5E
1514891063.81,7521,6.75,72372.0,-3.11,-9.89,-10.89,0,*5A
1514891065.06,7522,6.75,72368.5,-3.09,-9.97,-11.07,0,*58
1514891066.32,7523,6.75,72370.8,-3.09,-10.15,-11.37,0,*68
1514891067.55,7524,6.75,72370.5,-3.09,-10.23,-11.45,0,*6F
1514891068.78,7525,6.75,72372.5,-3.09,-10.15,-11.23,0,*6B
1514891070.0,7526,6.75,72370.3,-3.09,-10.01,-11.19,0,*64
1514891071.22,7527,6.75,72372.3,-3.09,-10.09,-11.11,0,*65
1514891072.47,7528,6.75,72370.3,-3.09,-10.23,-11.37,0,*66
1514891073.67,7529,6.75,72370.3,-3.07,-9.97,-11.11,0,*5A
1514891074.9,7530,6.75,72370.8,-3.07,-10.15,-11.37,0,*64
1514891076.13,7531,6.75,72372.8,-3.09,-10.23,-11.23,0,*6B
1514891077.36,7532,6.75,72370.0,-3.09,-10.15,-11.23,0,*6D
1514891078.56,7533,6.75,72370.3,-3.07,-10.01,-11.19,0,*6E
1514891079.78,7534,6.75,72370.5,-3.07,-10.15,-11.33,0,*64
1514891081.01,7535,6.75,72374.0,-3.07,-10.23,-11.51,0,*64
1514891082.24,7536,6.75,72370.0,-3.07,-10.35,-11.51,0,*60
1514891083.47,7537,6.75,72372.3,-3.07,-10.23,-11.37,0,*66
1514891084.69,7538,6.75,72370.3,-3.07,-10.23,-11.37,0,*69
1514891085.92,7539,6.75,72368.5,-3.07,-10.15,-11.33,0,*69
1514891087.12,7540,6.75,72370.3,-3.07,-10.15,-11.23,0,*66
1514891088.35,7541,6.75,72372.5,-3.07,-10.15,-11.37,0,*62
1514891089.56,7542,6.75,72368.8,-3.07,-10.27,-11.45,0,*65
1514891090.78,7543,6.75,72372.8,-3.07,-10.23,-11.33,0,*61
1514891092.03,7544,6.75,72368.3,-3.07,-10.41,-11.51,0,*66
1514891093.24,7545,6.75,72368.8,-3.07,-10.23,-11.23,0,*66
1514891094.46,7546,6.75,72370.3,-3.07,-10.23,-11.33,0,*64
1514891095.71,7547,6.75,72372.0,-3.07,-10.41,-11.59,0,*6D
1514891096.92,7548,6.75,72370.3,-3.07,-10.35,-11.45,0,*6C
1514891098.15,7549,6.75,72372.0,-3.07,-10.49,-11.73,0,*63
1514891099.37,7550,6.75,72374.0,-3.07,-10.49,-11.77,0,*6F
1514891100.6,7551,6.75,72372.3,-3.07,-10.23,-11.37,0,*66
1514891101.8,7552,6.75,72374.0,-3.07,-10.23,-11.19,0,*69
1514891103.0,7553,6.75,72370.0,-3.07,-10.27,-11.45,0,*65
1514891104.23,7554,6.75,72368.0,-3.05,-10.23,-11.41,0,*60
1514891105.45,7555,6.75,72368.8,-3.07,-10.23,-11.33,0,*66
1514891106.67,7556,6.75,72368.0,-3.05,-10.05,-11.15,0,*67
1514891107.88,7557,6.75,72368.8,-3.05,-10.09,-11.15,0,*6A
1514891109.1,7558,6.75,72370.0,-3.05,-10.09,-11.15,0,*65
1514891110.31,7559,6.75,72372.8,-3.03,-10.19,-11.23,0,*66
1514891111.51,7560,6.75,72368.8,-3.03,-10.01,-11.11,0,*64
1514891112.7,7561,6.75,72370.0,-3.03,-10.05,-11.23,0,*60
1514891113.9,7562,6.75,72368.5,-3.03,-10.05,-11.11,0,*62
1514891115.12,7563,6.75,72368.0,-3.01,-10.05,-11.11,0,*61
1514891116.32,7564,6.75,72370.0,-3.03,-10.05,-11.01,0,*65
1514891117.54,7565,6.75,72368.5,-3.01,-10.05,-11.15,0,*63
1514891118.75,7566,6.75,72368.8,-3.03,-10.19,-11.23,0,*6A
1514891119.98,7567,6.75,72370.3,-3.01,-10.15,-11.15,0,*60
1514891121.2,7568,6.75,72370.8,-3.01,-10.05,-11.15,0,*6E
1514891122.43,7569,6.75,72370.0,-3.01,-10.01,-11.11,0,*6F
1514891123.66,7570,6.75,72366.0,-3.03,-10.15,-11.29,0,*6B
1514891124.89,7571,6.75,72368.8,-3.01,-10.31,-11.41,0,*60
1514891126.09,7572,6.75,72368.8,-2.99,-10.09,-11.11,0,*6D
1514891127.29,7573,6.75,72368.8,-2.99,-10.23,-11.23,0,*65
1514891128.51,7574,6.75,72370.5,-2.99,-10.23,-11.33,0,*63
1514891129.71,7575,6.75,72372.3,-2.99,-10.09,-11.11,0,*6A
1514891130.93,7576,6.75,72370.3,-2.97,-10.09,-11.23,0,*66
1514891132.15,7577,6.75,72370.5,-2.99,-10.23,-11.37,0,*64
1514891133.38,7578,6.75,72372.3,-2.99,-10.49,-11.55,0,*63
1514891134.63,7579,6.75,72372.3,-2.97,-10.35,-11.37,0,*63
1514891135.86,7580,6.75,72372.5,-2.99,-10.35,-11.33,0,*6F
1514891137.06,7581,6.75,72370.8,-2.99,-10.15,-11.23,0,*6D
1514891138.32,7582,6.75,72372.3,-2.99,-10.41,-11.51,0,*6A
1514891139.54,7583,6.75,72368.5,-2.99,-10.53,-11.51,0,*68
1514891140.76,7584,6.75,72372.8,-2.99,-10.49,-11.51,0,*64
1514891142.01,7585,6.75,72370.8,-2.97,-10.35,-11.33,0,*64
1514891143.22,7586,6.75,72368.8,-2.99,-10.27,-11.23,0,*6B
1514891144.42,7587,6.75,72370.8,-2.99,-10.49,-11.45,0,*62
1514891145.64,7588,6.75,72370.5,-2.99,-10.53,-11.55,0,*67
1514891146.85,7589,6.75,72368.3,-2.99,-10.35,-11.23,0,*67
1514891148.1,7590,6.75,72368.0,-2.97,-10.41,-11.45,0,*62
1514891149.35,7591,6.75,72368.3,-2.99,-10.41,-11.33,0,*6C
1514891150.58,7592,6.75,72374.5,-2.97,-10.49,-11.45,0,*68
1514891151.78,7593,6.75,72370.8,-2.99,-10.49,-11.45,0,*67
1514891153.0,7594,6.75,72370.8,-2.97,-10.23,-11.23,0,*62
1514891154.26,7595,6.75,72370.0,-2.97,-10.35,-11.37,0,*61
1514891155.48,7596,6.75,72368.5,-2.97,-10.27,-11.19,0,*6D
1514891156.71,7597,6.75,72370.5,-2.97,-10.35,-11.11,0,*67
1514891157.97,7598,6.75,72370.0,-2.97,-10.41,-11.45,0,*6A
1514891159.24,7599,6.75,72368.5,-2.97,-10.63,-11.51,0,*6E
1514891160.47,7600,6.75,72374.0,-2.97,-10.35,-11.23,0,*6B
1514891161.7,7601,6.75,72366.8,-2.97,-10.35,-11.23,0,*6A
1514891162.93,7602,6.75,72368.0,-2.95,-10.45,-11.29,0,*66
1514891164.15,7603,6.75,72368.8,-2.95,-10.45,-11.33,0,*6C
1514891165.37,7604,6.75,72374.8,-2.95,-10.45,-11.33,0,*6B
1514891166.63,7605,6.75,72368.0,-2.97,-10.63,-11.45,0,*6D
1514891167.86,7606,6.75,72370.8,-2.95,-10.19,-11.07,0,*67
1514891169.1,7607,6.75,72372.5,-2.95,-10.19,-11.07,0,*66
1514891170.31,7608,6.75,72374.0,-2.95,-10.19,-11.01,0,*6F
1514891171.54,7609,6.75,72368.8,-2.95,-10.31,-11.07,0,*62
1514891172.78,7610,6.75,72370.5,-2.95,-10.19,-11.07,0,*60
1514891173.98,7611,6.75,72370.5,-2.95,-10.05,-10.93,0,*60
1514891175.18,7612,6.75,72368.8,-2.91,-10.09,-10.93,0,*6B
1514891176.41,7613,6.75,72370.5,-2.91,-10.35,-11.29,0,*65
1514891177.64,7614,6.75,72370.8,-2.91,-10.45,-11.29,0,*65
1514891178.87,7615,6.75,72374.3,-2.95,-10.49,-11.29,0,*6C
1514891180.13,7616,6.75,72368.3,-2.91,-10.63,-11.51,0,*6C
1514891181.36,7617,6.75,72368.3,-2.91,-10.49,-11.29,0,*6A
1514891182.59,7618,6.75,72372.0,-2.91,-10.23,-11.07,0,*65
1514891183.82,7619,6.75,72368.0,-2.95,-10.23,-11.07,0,*60
1514891185.06,7620,6.75,72372.0,-2.95,-10.31,-11.07,0,*69
1514891186.26,7621,6.75,72370.5,-2.91,-10.23,-10.93,0,*63
1514891187.5,7622,6.75,72368.8,-2.89,-10.15,-10.89,0,*67
1514891188.73,7623,6.75,72370.8,-2.89,-10.19,-11.01,0,*6B
1514891189.95,7624,6.75,72368.8,-2.89,-10.05,-10.97,0,*6F
1514891191.18,7625,6.75,72368.8,-2.89,-10.15,-10.97,0,*6F
1514891192.42,7626,6.75,72368.3,-2.89,-10.15,-10.97,0,*6C
1514891193.65,7627,6.75,72370.8,-2.89,-10.15,-10.97,0,*6D
1514891194.88,7628,6.75,72370.8,-2.89,-10.15,-11.01,0,*6C
1514891196.12,7629,6.75,72370.3,-2.89,-10.15,-10.97,0,*63
1514891197.35,7630,6.75,72370.8,-2.89,-10.19,-10.97,0,*67
1514891198.56,7631,6.75,72372.3,-2.87,-10.19,-11.01,0,*66
1514891199.79,7632,6.75,72370.5,-2.89,-10.27,-11.01,0,*66
1514891201.0,7633,6.75,72370.8,-2.87,-10.15,-11.01,0,*68
1514891202.21,7634,6.75,72370.0,-2.87,-10.19,-10.89,0,*62
1514891203.44,7635,6.75,72368.3,-2.89,-10.19,-10.97,0,*62
1514891204.68,7636,6.75,72370.8,-2.89,-10.19,-10.97,0,*61
1514891205.89,7637,6.75,72372.5,-2.87,-10.19,-11.01,0,*60
1514891207.09,7638,6.75,72370.5,-2.87,-10.19,-11.11,0,*6E
1514891208.3,7639,6.75,72374.3,-2.87,-10.31,-11.11,0,*65
1514891209.5,7640,6.75,72368.8,-2.87,-10.27,-11.11,0,*6C
1514891210.7,7641,6.75,72372.0,-2.87,-10.09,-10.93,0,*6A
1514891211.91,7642,6.75,72368.0,-2.87,-10.15,-10.97,0,*60
1514891213.14,7643,6.75,72370.5,-2.89,-10.19,-10.89,0,*6C
1514891214.35,7644,6.75,72372.0,-2.87,-10.19,-11.11,0,*65
1514891215.55,7645,6.75,72372.3,-2.87,-10.31,-11.23,0,*6F
1514891216.76,7646,6.75,72368.3,-2.87,-10.19,-11.01,0,*66
1514891218.0,7647,6.75,72370.3,-2.85,-10.15,-10.97,0,*67
1514891219.23,7648,6.75,72370.8,-2.85,-10.15,-10.97,0,*68
1514891220.45,7649,6.75,72370.0,-2.85,-9.97,-10.85,0,*58
1514891221.68,7650,6.75,72370.8,-2.85,-10.23,-10.97,0,*64
1514891222.91,7651,6.75,72368.8,-2.85,-10.27,-11.11,0,*6E
1514891224.15,7652,6.75,72374.8,-2.85,-10.15,-10.97,0,*63
1514891225.41,7653,6.75,72368.8,-2.85,-10.15,-11.07,0,*6A
1514891226.67,7654,6.75,72366.8,-2.85,-10.27,-11.07,0,*6C
1514891227.9,7655,6.75,72370.5,-2.85,-10.27,-11.19,0,*62
1514891229.15,7656,6.75,72368.5,-2.85,-10.41,-11.23,0,*68
1514891230.38,7657,6.75,72368.3,-2.85,-10.27,-11.11,0,*68
1514891231.61,7658,6.75,72370.3,-2.89,-10.31,-11.15,0,*68
1514891232.81,7659,6.75,72370.3,-2.87,-10.31,-11.15,0,*67
1514891234.02,7660,6.75,72372.0,-2.87,-10.45,-11.23,0,*6B
1514891235.24,7661,6.75,72368.5,-2.89,-10.31,-11.23,0,*67
1514891236.46,7662,6.75,72370.5,-2.87,-10.53,-11.37,0,*6B
1514891237.67,7663,6.75,72368.8,-2.87,-10.57,-11.45,0,*6B
1514891238.92,7664,6.75,72368.3,-2.89,-10.45,-11.29,0,*6B
1514891240.14,7665,6.75,72368.3,-2.89,-10.27,-11.15,0,*61
1514891241.35,7666,6.75,72370.5,-2.87,-10.31,-11.11,0,*6F
1514891242.57,7667,6.75,72370.3,-2.89,-10.31,-11.15,0,*64
1514891243.82,7668,6.75,72374.5,-2.89,-10.45,-11.37,0,*68
1514891245.02,7669,6.75,72370.3,-2.87,-10.27,-11.15,0,*63
1514891246.25,7670,6.75,72370.3,-2.89,-10.31,-11.11,0,*66
1514891247.5,7671,6.75,72370.5,-2.89,-10.45,-11.29,0,*6F
1514891248.73,7672,6.75,72368.0,-2.89,-10.31,-11.15,0,*60
1514891249.98,7673,6.75,72374.3,-2.89,-10.41,-11.23,0,*63
1514891251.18,7674,6.75,72370.0,-2.87,-10.27,-11.23,0,*6A
1514891252.42,7675,6.75,72370.8,-2.89,-10.15,-11.01,0,*64
1514891253.66,7676,6.75,72372.0,-2.89,-10.53,-11.37,0,*60
1514891254.91,7677,6.75,72368.5,-2.89,-10.45,-11.29,0,*69
1514891256.14,7678,6.75,72370.5,-2.89,-10.15,-11.01,0,*69
1514891257.37,7679,6.75,72370.0,-2.89,-10.15,-10.89,0,*69
1514891258.57,7680,6.75,72368.0,-2.91,-10.05,-10.93,0,*6C
1514891259.77,7681,6.75,72370.3,-2.91,-10.09,-11.01,0,*6B
1514891260.98,7682,6.75,72370.8,-2.91,-10.19,-11.01,0,*69
1514891262.19,7683,6.75,72372.3,-2.91,-10.19,-10.93,0,*62
1514891263.43,7684,6.75,72374.3,-2.91,-10.31,-11.07,0,*63
1514891264.63,7685,6.75,72364.0,-2.91,-10.23,-11.15,0,*62
1514891265.84,7686,6.75,72368.3,-2.95,-10.31,-11.15,0,*66
1514891267.04,7687,6.75,72370.0,-2.91,-10.05,-10.93,0,*6B
1514891268.24,7688,6.75,72370.5,-2.91,-10.09,-11.01,0,*62
1514891269.44,7689,6.75,72372.8,-2.91,-10.23,-11.15,0,*6E
1514891270.67,7690,6.75,72370.0,-2.91,-10.09,-11.07,0,*6D
1514891271.87,7691,6.75,72370.3,-2.95,-10.23,-11.15,0,*63
1514891273.1,7692,6.75,72370.8,-2.91,-10.57,-11.33,0,*63
1514891274.3,7693,6.75,72372.0,-2.95,-10.31,-11.19,0,*6E
1514891275.51,7694,6.75,72370.8,-2.95,-10.19,-10.93,0,*60
1514891276.71,7695,6.75,72370.0,-2.91,-10.45,-11.19,0,*6F
1514891277.93,7696,6.75,72368.8,-2.95,-10.45,-11.33,0,*60
1514891279.17,7697,6.75,72372.8,-2.95,-10.23,-11.07,0,*66
1514891280.36,7698,6.75,72370.3,-2.95,-10.09,-10.93,0,*6D
1514891281.56,7699,6.75,72368.0,-2.95,-10.09,-10.93,0,*6C
1514891282.76,7700,6.75,72370.5,-2.95,-10.05,-10.89,0,*6A
1514891283.96,7701,6.75,72368.3,-2.95,-10.05,-10.89,0,*6B
1514891285.18,7702,6.75,72370.0,-2.97,-10.09,-10.93,0,*6D
1514891286.4,7703,6.75,72368.5,-2.97,-10.09,-10.93,0,*6C
1514891287.63,7704,6.75,72368.5,-2.97,-10.15,-10.97,0,*62
1514891288.86,7705,6.75,72370.0,-2.99,-10.09,-11.07,0,*68
1514891290.05,7706,6.75,72372.0,-2.99,-10.09,-10.93,0,*67
1514891291.28,7707,6.75,72368.8,-2.97,-10.09,-10.93,0,*68
1514891292.5,7708,6.75,72368.5,-2.97,-10.09,-10.93,0,*67
1514891293.75,7709,6.75,72370.0,-2.97,-10.23,-11.07,0,*62
1514891294.98,7710,6.75,72368.0,-2.99,-10.41,-11.11,0,*67
1514891296.2,7711,6.75,72368.5,-2.99,-10.53,-11.33,0,*65
1514891297.41,7712,6.75,72368.3,-2.99,-10.35,-10.97,0,*69
1514891298.62,7713,6.75,72370.3,-2.99,-10.35,-11.19,0,*6F
1514891299.84,7714,6.75,72368.5,-3.01,-10.45,-11.23,0,*66
1514891301.05,7715,6.75,72372.0,-3.03,-10.31,-11.11,0,*67
1514891302.25,7716,6.75,72368.0,-2.99,-10.27,-11.11,0,*61
1514891303.48,7717,6.75,72370.0,-3.03,-10.41,-11.23,0,*63
1514891304.73,7718,6.75,72370.3,-3.01,-10.57,-11.37,0,*6C
1514891305.93,7719,6.75,72366.3,-3.03,-10.45,-11.15,0,*6C
1514891307.16,7720,6.75,72370.3,-3.05,-10.19,-11.01,0,*6C
1514891308.38,7721,6.75,72368.0,-3.03,-10.19,-10.97,0,*65
1514891309.6,7722,6.75,72372.5,-3.01,-10.27,-11.11,0,*66
1514891310.81,7723,6.75,72368.8,-3.03,-10.27,-11.01,0,*64
1514891312.01,7724,6.75,72368.5,-3.03,-10.31,-11.23,0,*64
1514891313.21,7725,6.75,72368.0,-3.03,-10.53,-11.23,0,*61
1514891314.41,7726,6.75,72370.8,-3.07,-10.49,-11.23,0,*6D